{"data":{"norad_id":57084,"epoch":"2026-05-25T01:37:24.407040Z","epoch_age_seconds":62466,"freshness":"FRESH","line1":"1 57084U 23088AN  26145.06764360 -.00003560  00000+0 -11983-3 0  9995","line2":"2 57084  43.0053  24.5920 0001711 262.8891  97.1766 15.27596622162188","mean_motion":15.27596622,"eccentricity":0.0001711,"inclination_deg":43.0053,"raan_deg":24.592,"arg_perigee_deg":262.8891,"mean_anomaly_deg":97.1766,"bstar":-0.00011983,"rev_number":16218,"period_min":94.265722983512,"perigee_km":481.82538381816,"apogee_km":484.17326466831,"semimajor_km":6861.1363242432,"source":"CELESTRAK","updated_at":"2026-05-25T13:38:18.216247Z"}}